Regional Weather Roundup
Issued by NWS

Home | Current Version | Previous Version | Graphics & Text | Print | Product List | Glossary On
Versions: 1 2 3 4 5 6 7 8 9 10 11 12 13 14 15 16 17 18 19 20 21 22 23 24 25 26 27 28 29 30 31 32 33 34 35 36 37 38 39 40 41 42 43 44 45 46 47 48 49 50
000
ASUS45 KCYS 200610
RWRWY

WYOMING REGIONAL WEATHER ROUNDUP
NATIONAL WEATHER SERVICE CHEYENNE WY
1100 PM MST SUN NOV 19 2017

NOTE:  "FAIR" INDICATES FEW OR NO CLOUDS BELOW 12,000 FEET
WITH NO SIGNIFICANT WEATHER AND/OR OBSTRUCTIONS TO VISIBILITY.

WYZ001-200700-
YELLOWSTONE NATIONAL PARK

CITY           SKY/WX    TMP DP  RH WIND       PRES   REMARKS
LK YELLOWSTONE   N/A     13  11  92 CALM      30.02S
6HR MIN TEMP:  13; 6HR MAX TEMP:  20;

W YELLOWSTONE  NOT AVBL

$$
WYZ002>013-054>058-071-098>099-200700-
NORTHERN WYOMING

CITY           SKY/WX    TMP DP  RH WIND       PRES   REMARKS
JACKSON        FAIR      17  13  84 NE7         N/A  WCI   8
CODY           FAIR      46   3  17 SW14G20   29.82R
GREYBULL       FAIR      25  22  88 W5        29.82F WCI  19
6HR MIN TEMP:  24; 6HR MAX TEMP:  33;

WORLAND        FAIR      24  23  96 CALM      29.81S
6HR MIN TEMP:  21; 6HR MAX TEMP:  29;

SHERIDAN       FAIR      37  20  50 S5        29.68F WCI  33
6HR MIN TEMP:  27; 6HR MAX TEMP:  51;

BUFFALO        FAIR      40  17  39 W10       29.71S WCI  33
6HR MIN TEMP:  33; 6HR MAX TEMP:  50;

GILLETTE       FAIR      44   9  23 SW24G32   29.69F
6HR MIN TEMP:  41; 6HR MAX TEMP:  45;

HULETT         FAIR      43  12  28 SW12      29.71S
NEWCASTLE      FAIR      32  14  47 SE6       29.79F WCI  26

$$
WYZ014>020-022>026-101>103-200700-
CENTRAL WYOMING

CITY           SKY/WX    TMP DP  RH WIND       PRES   REMARKS
BIG PINEY      FAIR       7   5  91 SE3       30.07S
6HR MIN TEMP:   7; 6HR MAX TEMP:  22;

PINEDALE       FAIR      14  12  92 CALM      30.06F
DUBOIS         FAIR      32   5  32 NW15G22   29.90S WCI  22
LANDER         FAIR      30  13  49 VRB5      29.87F WCI  25
6HR MIN TEMP:  25; 6HR MAX TEMP:  36;

RIVERTON       FAIR      30  16  56 W13       29.87F WCI  20
6HR MIN TEMP:  23; 6HR MAX TEMP:  32;

CASPER         FAIR      37  14  38 SW21      29.86F WCI  26
6HR MIN TEMP:  35; 6HR MAX TEMP:  38;

DOUGLAS        FAIR      37  15  40 NW3       29.82F
6HR MIN TEMP:  33; 6HR MAX TEMP:  42;


$$
WYZ021-027>030-104>119-200700-
SOUTHERN WYOMING

CITY           SKY/WX    TMP DP  RH WIND       PRES   REMARKS
EVANSTON       FAIR      26  18  71 SW8       30.08S WCI  18
6HR MIN TEMP:  24; 6HR MAX TEMP:  30;

FORT BRIDGER   FAIR      24  13  61 W8        30.09S WCI  16
ROCK SPRINGS   FAIR      21  15  78 SW7       30.06F WCI  12
6HR MIN TEMP:  20; 6HR MAX TEMP:  29;

DIXON          FAIR      17  11  78 E6        30.14F WCI   8
RAWLINS        FAIR      30  16  56 SW14      30.02F WCI  19
6HR MIN TEMP:  30; 6HR MAX TEMP:  33; 6HR PCP: TRACE;

SARATOGA       FAIR      27  10  50 E8        30.05F WCI  18
LARAMIE        FAIR      32   8  36 SW29G35   29.96F WCI  18
6HR MIN TEMP:  27; 6HR MAX TEMP:  37;

CHEYENNE       FAIR      38   6  26 W16       29.93F WCI  29
6HR MIN TEMP:  38; 6HR MAX TEMP:  45;

TORRINGTON     FAIR      45   9  23 W17G25    29.83F
6HR MIN TEMP:  41; 6HR MAX TEMP:  48;

PINE BLUFFS    FAIR      41   5  22 MISG      29.88F

$$



USA.gov is the U.S. government's official web portal to all federal, state and local government web resources and services.